ROMMA est une association bénévole à but non lucratif. Votre soutien est indispensable : ADHERER à ROMMA ou FAIRE un DON

Chamrousse - (38, Isère)

Massif de Belledonne (1800 m)   Longitude: 05° 52' 28" E   Latitude: 45° 06' 28" N Station partenaire n°3
 

Détail journalier du     <<     >>

Température Precipitation Humidité Pression Vent Dir Rafale Dir. rafale
Heure (°C) (mm) (%) (hPa) (km/h) (km/h)
01:00 4.808010065NNE13N
02:00 4.2084100610N16NNO
03:00 3.8089100613NNO23NNO
04:00 4.1084100614NNE24NE
05:00 3.9087100614NNE26NNE
06:00 3.9086100513N21NNE
07:00 4.0085100512NNE23N
08:00 4.5083100412N21NNE
09:00 3.8091100510NNO24NO
10:00 4.10100100514NNO29N
11:00 4.30100100516NO34N
12:00 4.9092100514NO34NO
13:00 4.80100100410NO26NNO
14:00 4.90100100511NO26NO
15:00 5.3010010059NO24NO
16:00 5.30.2100100511ONO24ONO
17:00 4.30.6100100513N29NO
18:00 5.7086100513NNO27N
19:00 6.20100100413ONO32ONO
20:00 5.9092100410ONO29ONO
21:00 4.8090100513NNO27NO
22:00 5.107710069N24NNO
23:00 4.8074100611NNE16NNE
minuit 5.1071100512NNE16NNE

Graphique du 18-05-2008

 

Serveur OMMA